www.pogodaiklimat.ru

Погода и климат >> Архив погоды >> Япония >> Цу


ПОГОДА в Цу

  • Прогноз погоды в Цу
  • Монитор погоды в Цу

АРХИВ ПОГОДЫ в Цу

Время (UTC), дата Ветер
(напр.,м/с)
 
Видим.   Явления Облачность Т
(С)
Тd
(С)
f
(%)
Тe
(С)
Тes
(С)
Комфортность P
(гПа)
Po
(гПа)
Тmin
(С)
Tmax
(С)
R
(мм)
R24
(мм)
S
(см)
00 19.08 ЮВ 2 6000 м мгла 8/5
[Cu med, cong Ac trans Ci sp]
+29.4 +23.4 70 +40 +44 очень
душно
1010.7 1008.6 +26.1
06 19.08 В 7 8000 м в посл. час ливневой дождь 9/1
[Cu med, cong Ac As]
+30.2 +23.6 68 +41 +42 опасность
перегрева
1009.6 1007.5 0.5
09 19.08 Ю 3 н/о н/о +29.7 +21.4 61 +38 +38 очень
душно
1011.3 1009.2
10 19.08 В 1 н/о н/о +26.3 +23.6 85 +36 +36 очень
душно
1010.8 1008.7
11 19.08 ЮВ 3 н/о н/о +26.5 +23.0 81 +35 +35 очень
душно
1010.8 1008.7
12 19.08 З 2 7000 м дымка {ливн. осадки} 9/3
[Cu Sc Ac As]
+25.8 +23.3 86 +35 +35 очень
душно
1011.4 1009.3 +31.5 6
13 19.08 С 1 н/о н/о +26.2 +22.9 82 +35 +35 очень
душно
1011.4 1009.3
14 19.08 С 1 н/о н/о +25.7 +23.2 86 +34 +34 очень
душно
1011.4 1009.3
15 19.08 З 1 н/о н/о +25.6 +23.3 87 +34 +34 очень
душно
1011.2 1009.1
16 19.08 СЗ 1 н/о н/о +25.7 +23.4 87 +35 +35 очень
душно
1011.2 1009.1
17 19.08 СЗ 2 н/о н/о +25.7 +22.8 84 +34 +34 очень
душно
1011.2 1009.1
18 19.08 З 2 н/о н/о +25.6 +22.9 85 +34 +34 очень
душно
1011.3 1009.2
19 19.08 З 2 н/о н/о +25.8 +22.7 83 +34 +34 очень
душно
1011.3 1009.2
20 19.08 З 2 н/о н/о +25.7 +23.0 85 +34 +34 очень
душно
1011.1 1009.0
21 19.08 СЗ 2 н/о н/о +25.9 +22.8 83 +34 +34 очень
душно
1011.2 1009.1
22 19.08 СЗ 1 н/о н/о +26.4 +22.9 81 +35 +35 очень
душно
1011.4 1009.3
23 19.08 В 1 н/о н/о +27.3 +23.3 79 +37 +37 очень
душно
1011.5 1009.4
00 20.08 В 1 5000 м слаб. ливневой дождь 9/6
[Cu med, cong Ac As]
+27.1 +24.0 83 +37 +40 очень
душно
1011.4 1009.3 +25.5 0.5
01 20.08 В 2 н/о н/о +28.2 +24.0 78 +39 +39 очень
душно
1011.5 1009.4
02 20.08 В 2 н/о н/о +29.1 +23.5 72 +40 +40 очень
душно
1011.2 1009.1
03 20.08 В 3 н/о н/о +29.4 +23.6 71 +40 +40 очень
душно
1010.4 1008.3
04 20.08 В 3 н/о н/о +31.1 +24.5 68 +44 +44 опасность
перегрева
1010.0 1007.9
05 20.08 В 3 н/о н/о +30.0 +24.2 71 +42 +42 опасность
перегрева
1009.6 1007.5
06 20.08 В 4 10 км {ливн. осадки} 9/9
[Cu med, cong]
+30.3 +24.7 72 +43 +44 опасность
перегрева
1009.7 1007.6 0.0
07 20.08 В 3 н/о н/о +29.1 +24.7 77 +41 +41 опасность
перегрева
1009.7 1007.6
08 20.08 В 2 н/о н/о +29.2 +25.0 78 +42 +42 опасность
перегрева
1009.6 1007.5
09 20.08 Ю 2 н/о н/о +29.1 +24.9 78 +42 +42 опасность
перегрева
1009.6 1007.5
10 20.08 Ю 1 н/о н/о +29.3 +24.6 76 +42 +42 опасность
перегрева
1009.9 1007.8
11 20.08 З 2 н/о н/о +29.0 +25.4 81 +43 +43 опасность
перегрева
1010.2 1008.1
12 20.08 З 2 20 км {ливн. осадки} 9/1
[Cu hum Ac trans Ci sp]
+28.7 +25.1 81 +42 +42 опасность
перегрева
1010.4 1008.3 +31.8 2
13 20.08 З 3 н/о н/о +28.3 +25.1 83 +41 +41 опасность
перегрева
1010.2 1008.1
14 20.08 З 2 н/о н/о +27.9 +25.0 84 +40 +40 очень
душно
1010.3 1008.2
15 20.08 З 2 н/о н/о +28.2 +24.4 80 +40 +40 очень
душно
1009.9 1007.8
16 20.08 СЗ 2 н/о н/о +28.0 +24.0 79 +39 +39 очень
душно
1009.7 1007.6
17 20.08 С 1 н/о н/о +28.1 +23.7 77 +39 +39 очень
душно
1009.5 1007.4
18 20.08 З 2 н/о н/о +27.8 +23.4 77 +38 +38 очень
душно
1009.4 1007.3
20 20.08 С 1 н/о н/о +27.5 +23.7 80 +38 +38 очень
душно
1010.0 1007.9
22 20.08 З 1 н/о н/о +27.9 +24.1 80 +39 +39 очень
душно
1010.5 1008.4
23 20.08 ЮВ 2 н/о н/о +29.2 +24.1 74 +41 +41 опасность
перегрева
1010.5 1008.4
00 21.08 В 3 20 км 3/1
[Cu med, cong Ac trans Ci sp]
+30.3 +24.2 70 +42 +50 опасность
перегрева
1010.4 1008.3 +27.1
01 21.08 В 3 н/о н/о +30.3 +24.0 69 +42 +42 опасность
перегрева
1010.3 1008.2
02 21.08 В 4 н/о н/о +30.2 +24.1 70 +42 +42 опасность
перегрева
1010.1 1008.0
03 21.08 В 4 н/о н/о +32.4 +25.0 65 +46 +46 опасность
перегрева
1009.3 1007.3
05 21.08 В 2 н/о н/о +30.1 +23.8 69 +41 +41 опасность
перегрева
1009.1 1007.0
06 21.08 ЮВ 2 20 км {ливн. осадки} 6/1
[Cb calv Ac cuf Ci ing]
+30.9 +23.3 64 +41 +48 опасность
перегрева
1008.3 1006.2 0.0
07 21.08 ЮВ 4 н/о н/о +31.0 +22.6 61 +41 +41 опасность
перегрева
1008.4 1006.3
09 21.08 В 2 н/о н/о +30.6 +24.3 69 +43 +43 опасность
перегрева
1008.3 1006.2
10 21.08 ЮВ 2 н/о н/о +30.5 +25.1 73 +44 +44 опасность
перегрева
1008.9 1006.8
11 21.08 З 3 н/о н/о +31.6 +20.6 52 +39 +39 очень
душно
1009.8 1007.7
12 21.08 З 3 20 км в посл. час ливневой дождь 10/8
[Cu Sc Ac As]
+31.0 +20.9 55 +38 +38 очень
душно
1010.2 1008.1 +32.5 0.0
13 21.08 З 3 н/о н/о +30.7 +21.2 57 +38 +38 очень
душно
1010.3 1008.2
15 21.08 СВ 3 н/о н/о +28.7 +23.6 74 +39 +39 очень
душно
1010.0 1007.9
16 21.08 СВ 2 н/о н/о +28.7 +22.5 69 +38 +38 очень
душно
1009.6 1007.5
17 21.08 СЗ 2 н/о н/о +28.4 +22.6 71 +38 +38 очень
душно
1009.6 1007.5
18 21.08 З 3 н/о н/о +28.7 +22.2 68 +37 +37 очень
душно
1009.5 1007.4 0.0
19 21.08 З 2 н/о н/о +28.3 +22.3 70 +37 +37 очень
душно
1009.3 1007.2
20 21.08 СЗ 1 н/о н/о +27.6 +22.6 74 +36 +36 очень
душно
1009.4 1007.3
22 21.08 З 1 н/о н/о +28.7 +22.5 69 +38 +38 очень
душно
1010.4 1008.3
23 21.08 СЗ 2 н/о н/о +30.0 +21.9 62 +39 +39 очень
душно
1010.4 1008.3
00 22.08 СЗ 2 15 км 8/1
[Cu med, cong Ac trans Ci sp]
+31.5 +21.7 56 +40 +46 очень
душно
1010.5 1008.4 +27.2 0.0
01 22.08 З 3 н/о н/о +33.1 +22.2 53 +42 +42 опасность
перегрева
1010.5 1008.5
02 22.08 ЮВ 2 н/о н/о +33.3 +21.8 51 +42 +42 опасность
перегрева
1009.7 1007.7
04 22.08 СВ 3 н/о н/о +33.0 +23.9 59 +45 +45 опасность
перегрева
1008.5 1006.5
05 22.08 ЮВ 4 н/о н/о +32.2 +23.7 61 +44 +44 опасность
перегрева
1008.2 1006.2
06 22.08 Ю 6 20 км 9/5
[Cb calv Ac cuf Ci ing]
+31.5 +23.6 63 +43 +44 опасность
перегрева
1008.2 1006.1
07 22.08 Ю 4 н/о н/о +30.7 +22.0 60 +39 +39 очень
душно
1008.1 1006.0
08 22.08 Ю 4 н/о н/о +31.4 +21.9 57 +40 +40 очень
душно
1007.9 1005.8
09 22.08 Ю 4 н/о н/о +30.7 +21.8 59 +39 +39 очень
душно
1007.8 1005.7
11 22.08 ЮЗ 2 н/о н/о +29.8 +22.5 65 +39 +39 очень
душно
1008.0 1005.9
12 22.08 З 2 20 км {ливн. осадки} 9/1
[Sc Ac As Ci sp]
+29.1 +23.1 70 +39 +39 очень
душно
1008.3 1006.2 +34.0 0.0
13 22.08 З 2 н/о н/о +29.3 +22.5 67 +39 +39 очень
душно
1008.4 1006.3
14 22.08 штиль 0 н/о н/о +29.4 +21.4 62 +37 +37 очень
душно
1008.1 1006.0
15 22.08 Ю 2 н/о н/о +29.2 +21.2 62 +37 +37 очень
душно
1008.1 1006.0
16 22.08 Ю 2 н/о н/о +28.0 +23.2 75 +38 +38 очень
душно
1007.5 1005.4
17 22.08 Ю 2 н/о н/о +27.5 +22.7 75 +36 +36 очень
душно
1007.1 1005.0
18 22.08 ЮЗ 2 н/о н/о +26.7 +23.2 81 +36 +36 очень
душно
1006.8 1004.7 0.5
19 22.08 ЮЗ 2 н/о н/о +26.2 +22.9 82 +35 +35 очень
душно
1006.7 1004.6
20 22.08 ЮЗ 2 н/о н/о +26.2 +22.5 80 +34 +34 очень
душно
1006.7 1004.6
21 22.08 ЮЗ 1 н/о н/о +25.8 +22.9 84 +34 +34 очень
душно
1007.3 1005.2
22 22.08 ЮВ 2 н/о н/о +26.9 +23.0 79 +36 +36 очень
душно
1007.2 1005.1
23 22.08 ЮЗ 2 н/о н/о +27.3 +22.9 77 +36 +36 очень
душно
1007.8 1005.7
00 23.08 Ю 1 20 км слаб. ливневой дождь {гроза} 9/9
[Cu med, cong Ac As]
+27.7 +22.4 73 +36 +38 очень
душно
1008.4 1006.3 +25.8 0.5
01 23.08 СВ 2 н/о н/о +26.2 +21.4 75 +33 +33 очень
душно
1008.8 1006.7
02 23.08 С 2 н/о н/о +25.7 +22.0 80 +33 +33 очень
душно
1008.3 1006.2
03 23.08 СЗ 3 н/о н/о +23.6 +21.3 87 +30 +30 очень
душно
1009.0 1006.9
04 23.08 С 4 н/о н/о +23.5 +21.2 87 +30 +30 очень
душно
1009.2 1007.1
05 23.08 С 3 н/о н/о +23.6 +20.6 83 +29 +29 душно 1008.9 1006.8
06 23.08 С 2 10 км слаб. ливневой дождь {гроза} 10/9
[Cu med, cong Ac As]
+22.9 +20.4 86 +30 +30 очень
душно
1008.8 1006.7 8
07 23.08 ЮВ 1 н/о н/о +23.7 +20.1 80 +29 +29 душно 1008.5 1006.4
08 23.08 З 2 н/о н/о +24.4 +20.5 79 +30 +30 очень
душно
1008.9 1006.8
09 23.08 СЗ 2 н/о н/о +24.1 +20.6 81 +30 +30 очень
душно
1009.0 1006.9
10 23.08 З 2 н/о н/о +23.5 +21.0 86 +30 +30 очень
душно
1009.4 1007.3
11 23.08 З 3 н/о н/о +23.5 +21.4 88 +30 +30 очень
душно
1010.3 1008.2
12 23.08 З 3 10 км слаб. ливневой дождь 10/9
[Cu med, cong Ac As]
+23.7 +21.2 86 +30 +30 очень
душно
1010.3 1008.2 +27.7 14
13 23.08 З 3 н/о н/о +23.7 +20.8 84 +30 +30 очень
душно
1009.7 1007.6
14 23.08 З 2 н/о н/о +23.7 +21.0 85 +30 +30 очень
душно
1010.0 1007.9
15 23.08 СЗ 1 н/о н/о +23.7 +20.5 82 +29 +29 душно 1010.1 1008.0
16 23.08 З 1 н/о н/о +23.5 +20.8 85 +29 +29 душно 1009.8 1007.7
17 23.08 СЗ 1 н/о н/о +23.3 +20.8 86 +31 +31 очень
душно
1009.7 1007.6
18 23.08 ЮЗ 1 н/о н/о +23.4 +20.9 86 +31 +31 очень
душно
1009.9 1007.8 0.5
19 23.08 СЗ 1 н/о н/о +23.4 +20.9 86 +31 +31 очень
душно
1009.8 1007.7
20 23.08 ЮЗ 1 н/о н/о +23.2 +20.7 86 +31 +31 очень
душно
1010.2 1008.1
21 23.08 СЗ 1 н/о н/о +23.3 +20.6 85 +31 +31 очень
душно
1010.5 1008.4
22 23.08 СЗ 1 н/о н/о +24.0 +20.9 83 +30 +30 очень
душно
1010.9 1008.8
23 23.08 ЮЗ 2 н/о н/о +24.3 +20.6 80 +30 +30 очень
душно
1011.0 1008.9
00 24.08 СВ 1 25 км {ливн. осадки} 6/3
[Cu med, cong Ac trans Ci sp]
+26.0 +20.3 71 +32 +39 очень
душно
1011.0 1008.9 +23.2 1
02 24.08 ЮВ 3 н/о н/о +27.8 +20.6 65 +35 +35 очень
душно
1010.3 1008.2
03 24.08 ЮВ 3 н/о н/о +28.8 +20.5 61 +36 +36 очень
душно
1009.8 1007.7
04 24.08 ЮВ 4 н/о н/о +29.4 +21.1 61 +37 +37 очень
душно
1009.4 1007.3
05 24.08 ЮЗ 6 н/о н/о +31.7 +18.3 45 +36 +36 очень
душно
1009.0 1006.9
06 24.08 З 6 20 км 9/1
[Cu med, cong Ac trans Ci sp]
+31.2 +17.9 45 +35 +38 очень
душно
1009.1 1007.0
08 24.08 З 4 н/о н/о +30.0 +17.8 48 +34 +34 очень
душно
1009.5 1007.4
09 24.08 З 3 н/о н/о +28.6 +17.5 51 +33 +33 очень
душно
1009.5 1007.4
10 24.08 З 3 н/о н/о +27.4 +18.4 58 +32 +32 очень
душно
1010.1 1008.0
11 24.08 З 4 н/о н/о +26.6 +18.7 62 +32 +32 очень
душно
1010.1 1008.0
12 24.08 З 3 15 км в посл. час ливневой дождь 9/8
[Cu med, cong Ac As]
+27.1 +18.1 58 +32 +32 очень
душно
1010.8 1008.7 +32.3 0.0
13 24.08 З 5 н/о н/о +26.4 +18.0 60 +31 +31 душно 1010.5 1008.4
14 24.08 З 3 н/о н/о +25.6 +18.0 63 +30 +30 душно 1010.4 1008.3
15 24.08 З 3 н/о н/о +24.4 +17.6 66 +28 +28 душно 1010.3 1008.2
16 24.08 З 4 н/о н/о +24.3 +15.5 58 +27 +27 жарко 1010.1 1008.0
18 24.08 ЮЗ 3 н/о н/о +24.3 +15.8 59 +27 +27 жарко 1010.4 1008.3 0.0
19 24.08 З 4 н/о н/о +24.5 +15.7 58 +28 +28 душно 1010.4 1008.3
20 24.08 З 2 н/о н/о +24.0 +16.3 62 +27 +27 жарко 1011.0 1008.9
21 24.08 З 3 н/о н/о +24.1 +16.9 64 +28 +28 душно 1011.4 1009.3
22 24.08 З 3 н/о н/о +25.1 +17.6 63 +29 +29 душно 1011.6 1009.5
23 24.08 З 3 н/о н/о +26.1 +18.3 62 +31 +31 очень
душно
1011.7 1009.6
00 25.08 ЮЗ 3 15 км 1/1
[Cu med, cong]
+27.3 +17.5 55 +31 +40 душно 1011.6 1009.5 +23.5 0.0
01 25.08 З 4 н/о н/о +28.1 +17.9 54 +33 +33 очень
душно
1011.6 1009.5
02 25.08 СЗ 3 н/о н/о +29.8 +18.9 52 +35 +35 очень
душно
1011.3 1009.2
03 25.08 З 4 н/о н/о +29.8 +17.0 46 +33 +33 душно 1010.9 1008.8
04 25.08 СЗ 5 н/о н/о +30.7 +15.2 39 +33 +33 душно 1010.6 1008.5
05 25.08 СЗ 3 н/о н/о +31.0 +16.6 42 +34 +34 душно 1009.9 1007.8
06 25.08 СЗ 4 20 км 6/4
[Cu med, cong Ac trans]
+30.4 +16.8 44 +34 +37 очень
душно
1010.4 1008.3
07 25.08 З 3 н/о н/о +30.4 +17.1 45 +34 +34 очень
душно
1010.6 1008.5
08 25.08 СЗ 4 н/о н/о +29.8 +16.6 45 +33 +33 душно 1010.7 1008.6
09 25.08 З 4 н/о н/о +28.4 +17.0 50 +32 +32 душно 1010.9 1008.8
10 25.08 СЗ 5 н/о н/о +27.5 +16.8 52 +31 +31 душно 1011.4 1009.3
11 25.08 СЗ 4 н/о н/о +26.7 +16.3 53 +30 +30 душно 1012.4 1010.3
12 25.08 СЗ 3 25 км в посл. час ливневой дождь 10/9
[Cu med, cong Ac As]
+26.1 +16.1 54 +29 +29 жарко 1012.8 1010.7 +32.2 0.0
13 25.08 З 4 н/о н/о +26.4 +16.6 55 +30 +30 душно 1012.4 1010.3
14 25.08 З 3 н/о н/о +26.1 +16.9 57 +30 +30 душно 1012.1 1010.0
15 25.08 З 3 н/о н/о +25.9 +17.0 58 +30 +30 душно 1012.0 1009.9
17 25.08 З 5 н/о н/о +24.8 +17.5 64 +29 +29 душно 1012.1 1010.0

 

Местоположение метеостанции Цу (Япония): широта 34.73 долгота 136.51 высота над уровнем моря 18 м.

В архиве по умолчанию представлена погода в Цу за последнюю неделю. Архивные данные за месяц целиком и за предыдущие месяцы, начиная с января 2011 года, Вы можете получить, выбрав интересующий диапазон дат из раскрывающегося списка и нажав кнопку "Ввод!".


*Определитесь, кто Вы:
робот инопланетянин человек

Внимание! Время в таблицах - всемирное. Для получения местного времени необходимо прибавить поправку, которая равна 9 ч.

Смотрите также архив погоды в соседних городах и на ближайших метеорологических станциях:

Погода в Йоккаити (Япония) (23 км)
Погода в Уэно (Япония) (33 км)
Погода в Ирако (Япония) (55 км)
Погода в Наре (Япония) (62 км)
Погода в Нагоя (Япония) (64 км)
Погода в Хиконе (Япония) (66 км)
Погода в Гифу (Япония) (78 км)
Погода в Киото (Япония) (78 км)
Погода в Овасе (Япония) (79 км)
Погода в Осаке (Япония) (92 км)

Пояснения к столбцам:

Ветер - указаны скорость ветра в м/с - средняя за 10 мин, порывы в срок и между сроками (в фигурных скобках) и направление, откуда дует ветер: С - северный, СВ - северо-восточный, В - восточный, ЮВ - юго-восточный, Ю - южный, ЮЗ - юго-западный, З - западный, СЗ - северо-западный.
Видимость - горизонтальная дальность видимости в метрах или километрах. При видимости от 1 до 10 км при отсутствии осадков обычно наблюдается дымка, при ухудшении видимости до 1 км и менее - туман. В сухую погоду видимость может ухудшаться дымом, пылью или мглою.
Явления - указаны атмосферные явления, наблюдавшиеся в срок или в последний час перед сроком; фигурными скобками обозначены явления, наблюдавшиеся между сроками (за 1-3 часа до срока); квадратными скобками обозначены град или гололедные отложения с указанием их диаметра в мм.
Облачность - указаны через наклонную черту общая и нижняя облачность в баллах и высота нижней границы облаков в метрах; квадратными скобками обозначены формы облаков: Ci - перистые, Cs - перисто-слоистые, Cc - перисто-кучевые, Ac - высококучевые, As - высокослоистые, Sc - слоисто-кучевые, Ns - слоисто-дождевые, Cu - кучевые, Cb - кучево-дождевые. Подробнее классификацию облаков см. в Атласе облаков (PDF).
T - Температура воздуха - температура, измеренная на высоте 2 м над землей.
Td - Температура точки росы - температура, при понижении до которой содержащийся в воздухе водяной пар достигнет насыщения.
f - Относительная влажность воздуха - влажноcть воздуха, измеренная на высоте 2 м над землей.
Te - Эффективная температура - температура, которую ощущает одетый по сезону человек в тени. Характеристика душности погоды. При расчете учитывается влияние влажности воздуха и скорости ветра на теплоощущения человека.
Tes - Эффективная температура на солнце - температура, которую ощущает человек, с поправкой на солнечный нагрев. Характеристика знойности погоды. Зависит от высоты солнца над горизонтом, облачности и скорости ветра. Ночью, в пасмурную погоду, а также при ветре 12 м/с и более поправка равна нулю.
P - Атмосферное давление - приведенное к уровню моря атмосферное давление.
Po - Атмосферное давление - измеренное на уровне метеостанции атмосферное давление.
Tmin - Минимальная температура - минимум температуры воздуха на высоте 2 м над землей.
Tmax - Максимальная температура - максимум температуры воздуха на высоте 2 м над землей.
R - Количество осадков - Количество выпавших осадков за период времени, мм. При наведении курсора мыши на число - период времени, за который выпало указанное количество осадков.
R24 - Количество осадков - Количество выпавших осадков за 24 часа, мм.
S - Снежный покров - Высота снежного покрова, см. При наведении курсора мыши на число - состояние снежного покрова и степень покрытия местности в баллах.